sat.trackr.live / text

‹ back to catalog

PRAETORIAN SDA_607

NORAD 65570 · 2025-203F

PAYLOAD ACTIVE UNKNOWN

§ Identity

Operator
Country
US
Launch date
2025-09-10
Launch site
AFWTR
Launch vehicle
Mass (kg)
RCS (m²)

Purposes: military

External: N2YO · Heavens-Above · Gunter

§ Orbital elements

Epoch: 2026-05-25T02:44:02.205024Z

Period
104.03 min
Inclination
81.3059°
Eccentricity
0.0007811
Mean motion
13.84281744 rev/d
Perigee alt
943.0 km
Apogee alt
954.5 km
Semi-major
7,326.9 km
B*
6.8459e-5
RAAN
32.0149°
Arg perigee
256.4433°
Mean anomaly
103.5854°
Rev number
3,551

§ Raw data

PRAETORIAN SDA_6071 65570U 25203F   26145.11391441  .00000088  00000+0  68459-4 0  99982 65570  81.3059  32.0149 0007811 256.4433 103.5854 13.84281744 35516

JSON: /api/v1/satellites/65570 · /tle

For live sub-satellite position, see the globe view (requires WebGL).

§ Visibility from observer

Set your observer location to see the next 7 days of passes ≥ 10°. The values pass through the URL so the page stays shareable.

No JS? Fill the form by hand. The geolocation button needs JavaScript.